Weather History for Greenville, MS

Change the Weather History Date:

Thursday, February 20, 2014

  Actual Average Record
Temperature  
Mean Temperature 63 °F 48 °F  
Max Temperature 78 °F 58 °F 79 °F (1986)
Min Temperature 47 °F 38 °F 21 °F (1958)
Degree Days  
Heating Degree Days 2 17  
Month to date heating degree days 457 394  
Since 1 July heating degree days 2453 2183  
Cooling Degree Days 0 0  
Month to date cooling degree days 0 0  
Year to date cooling degree days 0 1  
Growing Degree Days 15 (Base 50)    
Moisture  
Dew Point 57 °F    
Average Humidity 71    
Maximum Humidity 87    
Minimum Humidity 54    
Precipitation  
Precipitation 0.06 in 0.15 in 2.75 in (1967)
Month to date precipitation 3.04 3.87  
Year to date precipitation 3.88 8.84  
Sea Level Pressure  
Sea Level Pressure 29.82 in    
Wind  
Wind Speed 19 mph (SSW)    
Max Wind Speed 32 mph    
Max Gust Speed 40 mph    
Visibility 8 miles    
Events Rain , Thunderstorm    
T = Trace of Precipitation, MM = Missing Value Source: NWS Daily Summary

Daily Weather History Graph

Daily Weather History Graph

Search for Another Location

Airport:

Trip Planner

Search our weather history database for the weather conditions in past years. The results will help you decide how hot, cold, wet, or windy it might be!

Date:

Astronomy

Feb. 20, 2014 Rise Set
Actual Time 6:42 AM CST 5:53 PM CST
Civil Twilight 6:17 AM CST 6:18 PM CST
Nautical Twilight 5:48 AM CST 6:47 PM CST
Astronomical Twilight 5:19 AM CST 7:16 PM CST
Moon 11:28 PM CST (2/20) 9:43 AM CST (2/20)
Length of Visible Light 12h 00m
Length of Day
11h 10m
Waning Gibbous, 70% of the Moon is Illuminated
Feb 20
Waning Gibbous
Feb 22
Last Quarter
Mar 1
New
Mar 8
First Quarter
Mar 16
Full

Hourly Weather History & Observations

Time (CST) Temp. Dew Point Humidity Pressure Visibility Wind Dir Wind Speed Gust Speed Precip Events Conditions
12:53 AM 61.0 °F 55.0 °F 81% 29.84 in 10.0 mi South 11.5 mph - N/A   Clear
1:53 AM 62.1 °F 55.9 °F 80% 29.84 in 9.0 mi South 15.0 mph - N/A   Mostly Cloudy
2:53 AM 63.0 °F 57.9 °F 84% 29.82 in 8.0 mi South 12.7 mph - N/A   Overcast
3:43 AM 64.4 °F 60.8 °F 88% 29.79 in 7.0 mi South 16.1 mph - N/A   Overcast
3:53 AM 64.9 °F 60.1 °F 84% 29.81 in 7.0 mi South 16.1 mph 24.2 mph N/A   Overcast
4:31 AM 64.4 °F 60.8 °F 88% 29.79 in 7.0 mi South 17.3 mph 24.2 mph N/A   Overcast
4:53 AM 64.9 °F 60.1 °F 84% 29.81 in 7.0 mi South 18.4 mph - N/A   Mostly Cloudy
5:53 AM 64.9 °F 60.1 °F 84% 29.83 in 7.0 mi South 15.0 mph - N/A   Mostly Cloudy
6:14 AM 64.4 °F 60.8 °F 88% 29.80 in 7.0 mi South 15.0 mph - N/A   Overcast
6:53 AM 64.9 °F 61.0 °F 87% 29.81 in 6.0 mi South 16.1 mph - N/A   Clear
7:53 AM 66.9 °F 62.1 °F 84% 29.82 in 6.0 mi South 17.3 mph - N/A   Haze
8:53 AM 69.1 °F 63.0 °F 81% 29.83 in 7.0 mi South 18.4 mph - N/A   Overcast
9:22 AM 69.8 °F 62.6 °F 78% 29.82 in 8.0 mi South 17.3 mph - N/A   Overcast
9:53 AM 70.0 °F 63.0 °F 78% 29.83 in 8.0 mi South 19.6 mph - N/A   Overcast
10:12 AM 71.6 °F 62.6 °F 73% 29.80 in 8.0 mi South 23.0 mph 29.9 mph N/A   Overcast
10:53 AM 73.0 °F 63.0 °F 71% 29.80 in 9.0 mi South 23.0 mph 31.1 mph N/A   Overcast
11:53 AM 75.0 °F 61.0 °F 62% 29.81 in 10.0 mi SSW 23.0 mph 33.4 mph N/A   Overcast
12:53 PM 75.9 °F 62.1 °F 62% 29.77 in 10.0 mi South 29.9 mph 34.5 mph N/A   Partly Cloudy
1:53 PM 78.1 °F 61.0 °F 56% 29.73 in 10.0 mi South 31.1 mph 40.3 mph N/A   Clear
2:53 PM 75.0 °F 60.1 °F 60% 29.74 in 10.0 mi South 21.9 mph 28.8 mph N/A   Overcast
3:53 PM 73.9 °F 59.0 °F 59% 29.74 in 10.0 mi South 19.6 mph 25.3 mph 0.00 in   Overcast
4:53 PM 73.9 °F 57.9 °F 57% 29.74 in 10.0 mi SSW 17.3 mph 26.5 mph 0.00 in   Overcast
5:28 PM 71.6 °F 60.8 °F 69% 29.75 in 7.0 mi SW 24.2 mph 35.7 mph 0.00 in Rain , Thunderstorm Light Rain
5:53 PM 68.0 °F 60.1 °F 76% 29.77 in 7.0 mi SSW 19.6 mph 26.5 mph 0.04 in Rain , Thunderstorm Light Thunderstorms and Rain
6:24 PM 64.4 °F 59.0 °F 83% 29.77 in 10.0 mi SSW 17.3 mph - 0.01 in Rain Light Rain
6:53 PM 64.0 °F 59.0 °F 84% 29.79 in 10.0 mi WSW 13.8 mph - 0.01 in   Mostly Cloudy
7:53 PM 64.0 °F 60.1 °F 87% 29.78 in 8.0 mi West 12.7 mph - N/A   Clear
8:53 PM 57.9 °F 41.0 °F 53% 29.88 in 10.0 mi NNW 28.8 mph 36.8 mph 0.01 in   Overcast
9:53 PM 54.0 °F 37.9 °F 55% 29.94 in 10.0 mi NNW 19.6 mph 31.1 mph N/A   Overcast
10:53 PM 52.0 °F 35.1 °F 53% 30.03 in 10.0 mi NNW 19.6 mph 31.1 mph N/A   Overcast
11:53 PM 48.0 °F 35.1 °F 61% 30.07 in 10.0 mi North 6.9 mph - N/A   Clear